Wind_Speed
16 16 16 16 16 15 14 14 14 14 15 16 17 17 17 17 17 17 17 17 17 17 17 18 19 19 19 19 19 20 20 20 20 21 21 22 22 22 23 23 23 24 24
17 17 17 16 17 16 16 16 15 15 16 17 18 17 18 18 18 19 19 19 19 20 20 19 20 20 20 20 20 21 22 22 22 22 23 24 24 24 24 25 25 25 26
18 17 18 18 17 17 17 16 16 17 17 17 18 18 19 19 20 20 21 21 22 22 22 22 22 23 23 22 22 23 23 24 23 23 23 23 24 25 26 27 27 27 28
19 19 18 19 18 18 17 18 18 18 18 18 18 18 19 20 20 21 22 22 23 23 23 24 24 24 24 24 24 24 25 25 25 25 25 25 26 26 27 27 27 28 28
19 19 19 18 19 18 18 19 19 19 18 19 19 19 20 20 20 21 22 23 23 23 24 24 25 25 25 25 25 25 25 26 26 26 26 26 26 27 27 28 28 28 28
20 20 20 20 20 20 20 20 20 20 20 20 20 20 20 20 20 20 21 22 22 22 22 23 24 25 25 25 25 25 25 26 27 26 26 27 27 27 27 28 28 28 29
19 20 21 21 21 21 20 20 20 21 21 20 20 20 20 19 20 20 20 20 21 21 21 22 22 23 24 25 25 26 25 25 26 26 26 27 27 27 27 27 29 30 31
20 20 21 22 21 21 21 20 21 21 21 20 21 21 20 20 19 20 21 21 21 21 21 22 21 22 22 23 24 25 25 25 25 26 27 27 28 28 28 29 30 30 31
21 22 22 21 21 21 21 21 21 22 21 21 21 20 19 19 19 20 20 20 20 20 20 20 20 20 20 21 22 23 24 25 26 27 27 27 28 29 29 30 31 30 31
19 21 22 21 21 21 22 21 21 21 21 21 21 20 19 19 18 18 19 19 19 18 18 18 19 19 20 21 21 22 23 24 25 26 27 28 29 30 31 31 32 32 33
18 20 21 21 21 21 20 20 20 20 20 20 19 20 19 19 18 18 18 18 19 19 18 18 19 19 20 21 21 22 24 25 26 28 29 29 29 30 31 32 32 33 34
17 18 19 20 20 20 20 20 20 20 19 19 19 19 18 18 17 18 18 18 19 19 19 19 20 20 20 22 22 23 24 26 28 29 29 30 31 31 32 33 33 34 35
17 17 18 19 19 19 20 20 20 20 20 19 19 19 18 18 18 18 18 18 18 19 19 19 20 21 22 23 23 24 25 26 28 29 28 29 30 31 32 32 33 35 36
18 18 18 18 18 18 19 20 19 19 19 19 19 19 19 19 19 19 19 19 19 19 19 20 21 22 23 24 24 25 26 26 27 27 27 28 29 30 31 32 33 34 35
18 18 19 18 18 19 19 19 19 20 20 19 19 19 19 19 20 19 19 19 19 19 20 20 21 22 23 23 24 25 25 26 26 26 27 28 29 30 31 31 32 33 34
18 18 18 20 19 19 19 20 20 20 20 20 19 19 19 20 20 20 20 20 20 21 21 21 22 22 23 23 24 24 25 26 26 26 27 28 28 29 30 30 31 31 32
19 19 19 19 19 20 20 20 20 21 20 20 20 19 19 19 20 20 20 21 21 21 21 21 22 22 23 23 24 25 25 26 26 27 28 28 29 29 29 29 30 31 31
19 19 19 19 20 21 21 20 19 19 19 19 19 20 20 20 20 20 20 20 20 20 20 20 21 22 22 23 24 25 26 26 26 27 28 28 28 29 29 30 30 31 32
18 19 19 19 20 20 20 20 19 18 18 19 19 19 19 19 20 20 19 19 19 20 21 21 22 22 23 24 25 25 25 26 27 27 28 28 28 29 29 30 30 31 31
17 18 19 19 19 19 19 18 17 17 18 19 19 19 20 19 19 19 19 19 20 21 21 22 22 23 24 24 25 25 25 26 26 27 27 27 27 28 29 29 29 30 31
17 18 18 19 19 19 18 18 18 19 20 20 20 20 20 20 20 19 19 20 21 21 21 22 23 24 24 25 25 25 26 27 27 27 26 26 27 27 28 29 29 29 29
16 17 17 17 18 18 18 18 19 20 20 20 20 20 20 21 21 20 20 20 20 21 21 22 23 24 24 25 25 25 25 26 26 26 25 25 26 27 28 28 28 28 28
15 15 15 16 17 17 17 18 18 19 19 18 19 20 21 20 20 20 20 21 21 22 22 23 24 24 24 25 25 25 25 25 25 25 25 25 25 26 27 28 27 28 28
15 15 16 16 16 17 17 17 18 18 18 18 18 18 19 20 19 20 20 21 21 22 23 24 24 24 24 25 25 25 25 25 24 24 25 25 26 26 27 27 27 27 26
16 16 16 15 15 16 17 18 18 17 17 16 17 17 18 18 19 20 20 20 21 22 22 23 24 24 24 25 25 25 25 25 24 24 25 26 26 27 27 27 27 26 25
16 16 16 15 16 16 16 17 17 17 16 15 16 16 17 18 19 19 19 20 20 21 22 23 23 24 24 24 24 25 25 24 24 24 25 26 26 27 26 25 25 25 24
Wind_Direction
261 264 270 271 271 272 272 278 279 280 280 278 277 276 275 275 274 273 274 274 274 273 273 271 269 265 262 260 260 260 259 259 257 252 251 249 249 249 246 246 248 247 244
261 263 266 270 269 271 273 275 278 281 281 281 279 277 278 279 277 274 273 272 273 273 272 271 269 267 265 262 261 260 259 259 258 258 256 252 252 251 249 247 248 248 245
260 263 266 267 267 270 271 272 276 281 282 281 280 278 278 279 279 278 276 275 275 273 271 271 271 269 267 265 263 260 259 258 258 260 259 257 255 253 252 250 248 249 248
262 262 265 267 268 269 270 273 276 281 280 282 283 282 279 279 280 280 279 278 277 274 273 272 270 268 267 266 265 262 259 257 258 260 260 260 259 256 255 252 250 249 249
262 261 264 268 269 270 272 274 276 278 280 282 283 282 280 281 283 280 279 279 278 276 276 274 271 268 267 265 265 263 261 258 258 259 259 260 260 258 258 255 253 251 249
261 262 265 268 271 272 272 272 274 277 280 281 281 282 283 285 285 283 283 282 281 279 278 276 273 270 267 265 264 263 261 261 260 258 259 260 259 258 256 256 254 251 249
262 264 267 269 270 270 271 273 276 277 278 279 280 282 284 285 285 284 282 283 283 281 280 277 275 270 267 265 263 262 261 262 261 259 259 260 259 258 256 254 253 253 250
263 265 268 269 268 268 270 274 276 277 278 280 282 283 284 285 285 285 283 283 283 282 279 277 274 271 268 266 264 264 264 262 261 261 260 261 260 261 259 256 255 255 252
262 264 269 267 265 268 271 273 275 277 276 278 280 282 283 285 285 286 286 286 285 284 281 279 277 274 270 268 267 267 266 265 265 264 263 263 262 260 258 258 257 257 255
263 263 267 268 269 272 274 273 276 276 275 275 277 279 283 286 286 289 288 288 287 286 283 281 279 276 273 271 270 269 268 268 268 266 265 266 263 261 259 258 259 259 258
266 264 267 268 269 272 273 272 274 277 276 275 278 279 281 283 285 289 289 289 288 286 283 281 280 279 275 272 272 273 271 269 270 269 268 267 264 262 260 259 258 258 258
269 269 270 271 272 273 272 272 274 275 277 279 278 277 278 282 285 288 289 289 288 287 284 282 279 277 273 273 276 276 275 273 272 272 272 269 266 264 261 260 259 258 257
272 272 272 273 273 273 272 272 274 276 276 278 278 277 277 278 282 286 288 289 288 286 285 283 279 277 276 278 279 279 278 277 275 273 272 270 268 265 262 261 260 260 258
272 274 272 273 275 274 274 273 274 276 276 279 278 276 277 278 281 284 286 287 285 283 284 284 282 280 281 282 284 282 280 278 276 274 272 270 268 268 266 264 263 262 260
271 273 270 270 273 275 276 274 275 276 276 276 277 277 279 279 282 282 283 284 285 286 286 286 285 285 285 286 287 287 285 282 279 277 275 273 270 269 268 267 265 262 260
271 272 272 274 276 277 278 276 276 277 277 277 278 277 279 282 283 282 283 284 285 285 287 286 288 289 288 289 290 289 286 284 281 279 278 275 273 273 271 270 267 264 263
273 273 274 276 275 276 278 279 277 277 276 275 276 277 279 282 283 283 284 286 286 288 290 288 288 290 289 288 289 289 288 285 283 281 280 278 276 274 273 269 268 267 264
275 274 274 275 276 275 276 277 275 277 278 275 275 277 278 282 285 285 286 287 287 288 289 290 291 291 290 288 288 289 288 286 286 283 280 279 276 274 274 272 271 269 266
276 275 272 273 275 275 276 275 275 276 278 279 278 280 283 285 286 287 287 288 290 292 293 293 292 292 293 291 290 290 289 288 288 287 284 282 278 276 276 275 274 272 270
277 277 274 275 277 277 276 277 278 279 279 280 281 283 285 284 285 286 287 289 291 294 296 295 294 294 294 294 293 293 292 290 290 290 287 285 281 279 278 279 278 275 272
277 278 278 278 278 278 277 277 278 280 279 282 283 283 284 285 283 283 284 286 289 292 295 295 295 296 296 296 295 295 294 292 292 293 290 287 285 283 282 281 281 278 275
280 281 281 280 280 278 280 281 281 282 282 282 282 282 284 285 285 283 285 287 289 291 294 296 297 297 298 297 297 296 296 295 294 295 293 290 286 285 285 284 282 278 275
279 281 283 283 280 279 281 283 286 286 284 281 282 283 283 284 285 285 287 287 289 291 294 296 297 298 299 299 298 297 297 297 297 296 295 293 289 287 287 287 283 280 276
278 279 282 282 281 280 282 285 288 287 287 285 284 282 283 284 284 287 288 289 292 294 296 297 299 299 300 300 300 299 299 298 296 296 297 297 294 292 290 288 287 284 276
276 280 282 283 285 285 286 289 291 291 289 287 285 285 286 285 286 289 290 291 294 296 298 300 302 302 301 301 301 300 299 299 298 297 298 299 297 293 291 289 288 284 279
275 279 281 285 288 288 289 291 291 292 291 289 290 290 290 291 291 291 291 292 295 296 299 301 303 304 303 301 300 300 300 299 298 298 300 301 299 296 293 291 288 284 280
Height
5858 5858 5858 5858 5858 5858 5858 5858 5858 5857 5857 5856 5856 5855 5855 5854 5854 5853 5853 5853 5852 5852 5852 5851 5851 5851 5852 5852 5852 5853 5853 5854 5855 5855 5856 5857 5858 5859 5860 5862 5863 5864 5866
5854 5854 5854 5854 5855 5855 5855 5854 5854 5854 5853 5853 5852 5851 5850 5850 5849 5849 5848 5848 5848 5847 5847 5847 5846 5847 5847 5847 5847 5847 5848 5849 5849 5850 5851 5852 5852 5853 5854 5856 5857 5859 5860
5849 5850 5850 5851 5851 5851 5851 5851 5851 5850 5849 5849 5848 5847 5846 5845 5844 5844 5843 5843 5842 5842 5842 5841 5841 5841 5841 5841 5841 5842 5842 5843 5844 5845 5845 5845 5845 5847 5848 5849 5851 5853 5854
5845 5845 5846 5847 5847 5847 5847 5847 5846 5846 5845 5844 5844 5843 5841 5841 5840 5839 5838 5837 5836 5836 5835 5835 5835 5834 5835 5835 5835 5835 5836 5837 5838 5838 5839 5840 5840 5840 5842 5843 5844 5846 5847
5841 5841 5842 5842 5842 5842 5842 5842 5842 5841 5840 5840 5839 5838 5837 5836 5835 5833 5832 5831 5830 5830 5829 5828 5828 5827 5828 5828 5829 5829 5829 5830 5831 5832 5833 5833 5833 5834 5835 5836 5838 5839 5840
5837 5838 5838 5838 5838 5838 5838 5838 5837 5837 5836 5835 5834 5833 5831 5830 5829 5828 5826 5825 5824 5823 5822 5821 5821 5821 5821 5822 5822 5823 5823 5824 5824 5825 5826 5826 5827 5827 5829 5830 5831 5832 5834
5833 5833 5834 5834 5833 5833 5833 5833 5832 5832 5830 5829 5829 5828 5826 5825 5824 5822 5821 5819 5818 5817 5816 5815 5815 5815 5815 5815 5816 5816 5817 5817 5818 5818 5819 5819 5820 5821 5821 5822 5824 5825 5826
5829 5829 5829 5829 5829 5829 5828 5828 5827 5826 5825 5824 5823 5822 5821 5820 5818 5817 5816 5814 5813 5811 5810 5810 5809 5809 5809 5809 5809 5809 5810 5810 5811 5811 5812 5812 5812 5813 5814 5815 5816 5817 5819
5824 5824 5824 5824 5824 5824 5823 5823 5822 5821 5820 5819 5818 5817 5816 5814 5813 5812 5810 5809 5807 5806 5805 5804 5803 5803 5802 5802 5803 5803 5803 5803 5804 5804 5804 5805 5805 5806 5806 5807 5808 5809 5810
5819 5819 5819 5819 5819 5818 5818 5817 5817 5815 5814 5813 5812 5811 5811 5809 5808 5807 5806 5804 5802 5801 5800 5799 5798 5798 5797 5797 5797 5797 5796 5796 5797 5797 5797 5797 5797 5797 5798 5799 5800 5800 5801
5815 5814 5814 5814 5813 5813 5813 5812 5811 5810 5809 5808 5807 5806 5805 5804 5803 5802 5801 5800 5798 5797 5795 5794 5793 5792 5792 5791 5791 5790 5790 5789 5789 5789 5788 5788 5788 5788 5789 5790 5791 5791 5792
5810 5810 5810 5809 5808 5808 5807 5807 5806 5805 5804 5803 5802 5801 5800 5800 5799 5797 5796 5795 5793 5792 5790 5789 5788 5787 5786 5785 5784 5784 5783 5782 5781 5780 5779 5779 5779 5779 5779 5780 5781 5782 5783
5806 5806 5805 5804 5804 5803 5802 5801 5801 5800 5799 5798 5797 5796 5795 5795 5794 5793 5791 5790 5788 5787 5785 5784 5782 5781 5780 5779 5778 5777 5775 5774 5773 5771 5770 5770 5769 5769 5769 5770 5771 5771 5772
5801 5801 5800 5799 5799 5798 5797 5796 5796 5795 5794 5793 5792 5791 5790 5790 5789 5788 5786 5785 5783 5782 5780 5779 5777 5775 5774 5772 5771 5769 5768 5766 5764 5763 5762 5761 5761 5760 5760 5760 5761 5761 5762
5797 5796 5796 5795 5794 5793 5792 5791 5790 5789 5789 5788 5787 5786 5785 5784 5783 5782 5781 5780 5778 5777 5775 5773 5771 5769 5767 5765 5764 5762 5760 5758 5756 5755 5754 5753 5752 5752 5751 5751 5751 5750 5751
5792 5792 5791 5790 5789 5788 5787 5786 5785 5784 5783 5783 5782 5781 5780 5779 5778 5777 5775 5774 5772 5771 5769 5767 5765 5763 5761 5759 5757 5755 5752 5750 5749 5747 5746 5745 5744 5743 5742 5742 5741 5741 5741
5787 5787 5786 5785 5784 5783 5782 5781 5780 5779 5778 5778 5777 5776 5775 5774 5772 5771 5770 5768 5766 5765 5763 5761 5758 5756 5754 5752 5750 5747 5745 5743 5741 5740 5738 5737 5735 5734 5733 5733 5732 5732 5731
5782 5781 5780 5779 5778 5778 5777 5776 5775 5774 5773 5772 5771 5770 5769 5768 5767 5765 5764 5762 5761 5759 5757 5755 5752 5750 5747 5745 5743 5740 5738 5735 5733 5732 5730 5728 5727 5726 5724 5723 5723 5722 5721
5776 5776 5775 5774 5773 5772 5771 5771 5769 5768 5768 5767 5766 5765 5764 5762 5761 5760 5758 5757 5755 5753 5751 5748 5746 5744 5741 5739 5736 5733 5731 5728 5725 5723 5721 5720 5718 5717 5716 5714 5713 5712 5711
5771 5770 5770 5768 5767 5766 5766 5765 5764 5763 5762 5762 5760 5759 5758 5757 5756 5754 5753 5751 5749 5747 5745 5742 5740 5738 5735 5732 5729 5726 5724 5720 5718 5715 5713 5711 5709 5708 5707 5705 5704 5703 5702
5766 5765 5764 5762 5761 5761 5760 5759 5758 5758 5757 5755 5754 5753 5752 5751 5750 5748 5747 5745 5743 5741 5739 5737 5734 5731 5728 5726 5723 5719 5717 5714 5711 5708 5705 5703 5701 5700 5698 5696 5694 5693 5691
5761 5760 5758 5757 5756 5755 5754 5753 5752 5751 5750 5749 5748 5747 5746 5744 5743 5742 5740 5739 5738 5736 5733 5731 5728 5725 5722 5719 5716 5713 5710 5707 5704 5701 5698 5696 5693 5691 5689 5687 5685 5683 5682
5757 5755 5754 5752 5751 5750 5749 5748 5746 5745 5744 5742 5741 5740 5739 5738 5737 5736 5734 5733 5731 5729 5727 5725 5722 5719 5716 5713 5709 5706 5703 5700 5697 5694 5691 5689 5686 5683 5681 5678 5676 5674 5672
5752 5751 5749 5748 5746 5745 5744 5742 5741 5739 5738 5736 5735 5734 5733 5731 5730 5729 5728 5726 5725 5723 5721 5718 5716 5712 5709 5706 5703 5700 5696 5693 5691 5687 5684 5682 5678 5675 5673 5670 5667 5665 5663
5747 5745 5744 5743 5741 5740 5739 5737 5736 5734 5732 5731 5729 5728 5727 5726 5725 5723 5722 5720 5718 5716 5714 5711 5709 5705 5702 5699 5696 5693 5690 5687 5684 5681 5678 5675 5671 5668 5665 5662 5659 5656 5654
5741 5740 5739 5738 5736 5735 5734 5732 5730 5729 5727 5725 5724 5723 5722 5720 5719 5717 5716 5714 5712 5710 5707 5705 5702 5699 5696 5693 5689 5686 5684 5681 5678 5675 5671 5667 5664 5660 5657 5654 5651 5648 5646